Skip to main content Skip to accessibility
This website is not compatible with your web browser. You should install a newer browser. If you live in Jersey and need help upgrading call the States of Jersey web team on 440099.
Homegov.je

L'înformâtion et les sèrvices publyis pouor I'Île dé Jèrri

  • Choose the service you want to log in to:

  • gov.je

    Update your notification preferences

  • one.gov.je

    Access government and parish services

  • CAESAR

    Clear goods through customs or claim relief

  • Talentlink

    View or update your States of Jersey job application

CI Airfield TAFs

JERSEY - EGJJ

191702Z 1918/2003 27007KT 9999 FEW003 SCT015 TEMPO 1918/1920 BKN012 BECMG 1920/1923 8000 BKN012 TEMPO 1920/2003 3000 VCFG BKN002 PROB30 TEMPO 1923/2003 0500 FG BKN000=

GUERNSEY - EGJB

191702Z 1918/2003 27007KT 9999 FEW001 SCT007 BECMG 1918/1920 7000 BKN007 TEMPO 1919/2003 3000 VCFG BKN002 PROB30 TEMPO 1919/2003 0500 FG BKN000=

ALDERNEY - EGJA

191702Z 1918/2003 Nil

Back to top
rating button